NIMIQ 4

Last updated on Tue Sep 22 2026 00:03:11 GMT+0000 (Coordinated Universal Time)

1 33373U 08044A 26264.54410426 -.00000224 00000+0 00000+0 0 9998 2 33373 0.0357 93.8672 0001970 97.4036 283.0169 1.00269385 65955
UTC large
Height (km)
Speed (km/s)
/
Latitude / Longitude
Inclination (degrees)
Orbital Period (minutes)
Azimuth
Elevation
Range (km)
Doppler Factor

Next 0 passes for location: London (51.5072 / 0.1276)

No passes found over London.
NIMIQ 4